, CA

(GMT )
Point Mugu

Weather History for KNTD - March, 2014

Change the Weather History Date:

Monday, March 17, 2014

  Actual Average Record
Temperature  
Mean Temperature 62 °F -  
Max Temperature 72 °F 61 °F 80 °F (2015)
Min Temperature 51 °F 45 °F 36 °F (2002)
Degree Days  
Heating Degree Days 4    
Growing Degree Days 12 (Base 50)    
Moisture  
Dew Point 52 °F    
Average Humidity 73    
Maximum Humidity 89    
Minimum Humidity 51    
Precipitation  
Precipitation 0.00 in - - ()
Sea Level Pressure  
Sea Level Pressure 29.91 in    
Wind  
Wind Speed 6 mph (WNW)    
Max Wind Speed 21 mph    
Max Gust Speed 34 mph    
Visibility 7 miles    
Events      
Averages and records for this station are not official NWS values.
T = Trace of Precipitation, MM = Missing Value Source: NWS Daily Summary

Daily Weather History Graph

Daily Weather History Graph

Search for Another Location

Airport or City:

Trip Planner

Search our weather history database for the weather conditions in past years. The results will help you decide how hot, cold, wet, or windy it might be!

Date:

Astronomy

Mar. 17, 2014 Rise Set
Actual Time 7:04 AM PDT 7:05 PM PDT
Civil Twilight 6:39 AM PDT 7:30 PM PDT
Nautical Twilight 6:10 AM PDT 7:59 PM PDT
Astronomical Twilight 5:40 AM PDT 8:29 PM PDT
Moon 8:22 PM PDT (3/17) 7:26 AM PDT (3/17)
Length of Visible Light 12h 51m
Length of Day
12h 01m
Full, 99% of the Moon is Illuminated
Mar 17
Full
Mar 23
Last Quarter
Mar 30
New
Apr 7
First Quarter
Apr 15
Full

Hourly Weather History & Observations

Time (PDT) Temp. Dew Point Humidity Pressure Visibility Wind Dir Wind Speed Gust Speed Precip Events Conditions
12:54 AM 60.1 °F 55.9 °F 86% 30.06 in - NW 3.5 mph - N/A   Clear
1:54 AM 57.0 °F 51.1 °F 81% 30.04 in - Calm Calm - N/A   Clear
2:54 AM 55.0 °F 51.1 °F 86% 30.02 in - Calm Calm - N/A   Clear
3:54 AM 54.0 °F 50.0 °F 86% 30.01 in - ENE 3.5 mph - N/A   Clear
4:54 AM 53.1 °F 48.0 °F 83% 29.98 in - Calm Calm - N/A   Clear
5:54 AM 53.1 °F 50.0 °F 89% 29.97 in - North - - N/A   Clear
6:08 AM 51.1 °F 48.0 °F 89% 29.98 in 5.0 mi Calm Calm - 0.00 in   Clear
6:54 AM 53.1 °F 50.0 °F 89% 29.97 in 7.0 mi Variable 3.5 mph - 0.00 in   Partly Cloudy
7:54 AM 52.0 °F 46.9 °F 83% 29.97 in 7.0 mi NNE 6.9 mph - N/A   Partly Cloudy
8:54 AM 62.1 °F 52.0 °F 70% 29.96 in 7.0 mi ESE 4.6 mph - N/A   Partly Cloudy
9:54 AM 66.9 °F 53.1 °F 61% 29.98 in 7.0 mi West 8.1 mph - N/A   Partly Cloudy
10:54 AM 71.1 °F 55.9 °F 59% 29.96 in 7.0 mi West 8.1 mph - N/A   Partly Cloudy
11:54 AM 70.0 °F 53.1 °F 55% 29.95 in 7.0 mi West 17.3 mph - N/A   Partly Cloudy
12:54 PM 69.1 °F 53.1 °F 57% 29.92 in 7.0 mi West 20.7 mph 27.6 mph N/A   Scattered Clouds
1:54 PM 71.1 °F 54.0 °F 55% 29.88 in 7.0 mi West 8.1 mph - N/A   Scattered Clouds
2:54 PM 72.0 °F 53.1 °F 51% 29.84 in 7.0 mi West 9.2 mph - N/A   Scattered Clouds
3:54 PM 68.0 °F 54.0 °F 61% 29.82 in 7.0 mi WNW 19.6 mph 33.4 mph N/A   Scattered Clouds
4:54 PM 66.9 °F 54.0 °F 63% 29.80 in 7.0 mi WNW 17.3 mph 26.5 mph N/A   Scattered Clouds
5:54 PM 64.0 °F 53.1 °F 67% 29.79 in 7.0 mi WNW 20.7 mph 34.5 mph N/A   Scattered Clouds
6:54 PM 62.1 °F 52.0 °F 70% 29.78 in 7.0 mi WNW 20.7 mph 31.1 mph N/A   Scattered Clouds
7:54 PM 61.0 °F 52.0 °F 72% 29.80 in 7.0 mi NW 12.7 mph - N/A   Scattered Clouds
8:54 PM 60.1 °F 52.0 °F 75% 29.80 in 7.0 mi NW 9.2 mph - N/A   Scattered Clouds
9:54 PM 60.1 °F 52.0 °F 75% 29.80 in 7.0 mi NW 5.8 mph - N/A   Scattered Clouds
10:54 PM 57.9 °F 52.0 °F 81% 29.81 in 7.0 mi Calm Calm - N/A   Scattered Clouds
11:54 PM 57.0 °F 51.1 °F 81% 29.80 in 7.0 mi ENE 3.5 mph - N/A   Scattered Clouds